TimeEDT,TemperatureF,Dew PointF,Humidity,Sea Level PressureIn,VisibilityMPH,Wind Direction,Wind SpeedMPH,Gust SpeedMPH,PrecipitationIn,Events,Conditions,WindDirDegrees,DateUTC
12:53 AM,69.1,53.1,57,29.46,10.0,South,11.5,21.9,N/A,,Overcast,190,2013-11-01 04:53:00
1:53 AM,66.9,55.9,68,29.45,6.0,WSW,8.1,19.6,0.00,Rain,Light Rain,240,2013-11-01 05:53:00
2:43 AM,60.8,57.2,88,29.56,1.2,WNW,34.5,61.0,0.17,Rain,Light Rain,290,2013-11-01 06:43:00
2:50 AM,55.4,53.6,94,29.54,0.5,West,20.7,61.0,0.30,Fog-Rain,Heavy Rain,270,2013-11-01 06:50:00
2:53 AM,57.0,54.0,89,29.53,0.8,West,15.0,39.1,0.31,Rain,Light Rain,270,2013-11-01 06:53:00
2:55 AM,57.2,55.4,94,29.55,2.0,West,17.3,36.8,0.00,Rain,Light Rain,280,2013-11-01 06:55:00
3:02 AM,57.2,53.6,88,29.56,7.0,West,13.8,29.9,0.01,Rain,Rain,270,2013-11-01 07:02:00
3:53 AM,57.0,53.1,87,29.56,10.0,SSW,8.1,-,0.06,Rain,Light Rain,210,2013-11-01 07:53:00
4:53 AM,55.9,53.1,90,29.55,10.0,SSW,8.1,-,0.01,Rain,Light Rain,200,2013-11-01 08:53:00
5:53 AM,55.9,53.1,90,29.60,10.0,SSW,10.4,-,0.00,,Mostly Cloudy,200,2013-11-01 09:53:00
6:42 AM,57.2,53.6,88,29.64,10.0,SW,8.1,-,N/A,,Overcast,220,2013-11-01 10:42:00
6:53 AM,57.0,53.1,87,29.64,10.0,SSW,9.2,-,N/A,,Overcast,210,2013-11-01 10:53:00
7:53 AM,57.0,52.0,83,29.67,10.0,SW,9.2,-,N/A,,Mostly Cloudy,230,2013-11-01 11:53:00
8:53 AM,57.0,51.1,81,29.71,10.0,WSW,11.5,17.3,N/A,,Scattered Clouds,250,2013-11-01 12:53:00
9:53 AM,57.9,51.1,78,29.73,10.0,WSW,9.2,-,N/A,,Mostly Cloudy,240,2013-11-01 13:53:00
10:53 AM,59.0,46.0,62,29.75,10.0,WSW,9.2,21.9,N/A,,Scattered Clouds,240,2013-11-01 14:53:00
11:53 AM,61.0,46.0,58,29.74,10.0,WSW,9.2,16.1,N/A,,Mostly Cloudy,240,2013-11-01 15:53:00
12:53 PM,62.1,44.1,52,29.73,10.0,West,11.5,23.0,N/A,,Scattered Clouds,260,2013-11-01 16:53:00
1:53 PM,64.0,43.0,46,29.70,10.0,WSW,9.2,19.6,N/A,,Scattered Clouds,250,2013-11-01 17:53:00
2:53 PM,64.9,43.0,45,29.68,10.0,West,9.2,19.6,N/A,,Scattered Clouds,270,2013-11-01 18:53:00
3:53 PM,64.0,42.1,45,29.68,10.0,West,8.1,21.9,N/A,,Scattered Clouds,270,2013-11-01 19:53:00
4:53 PM,64.0,41.0,43,29.69,10.0,West,10.4,17.3,N/A,,Partly Cloudy,270,2013-11-01 20:53:00
5:53 PM,62.1,39.9,44,29.70,10.0,West,10.4,-,N/A,,Clear,260,2013-11-01 21:53:00
6:53 PM,59.0,39.9,49,29.72,10.0,West,4.6,-,N/A,,Mostly Cloudy,270,2013-11-01 22:53:00
7:53 PM,57.9,39.9,51,29.73,10.0,SW,3.5,-,N/A,,Scattered Clouds,230,2013-11-01 23:53:00
8:53 PM,55.0,41.0,59,29.74,10.0,SSW,4.6,-,N/A,,Mostly Cloudy,200,2013-11-02 00:53:00
9:53 PM,55.0,42.1,62,29.73,10.0,SSW,4.6,-,N/A,,Overcast,210,2013-11-02 01:53:00
10:53 PM,55.9,41.0,57,29.73,10.0,SSW,3.5,-,N/A,,Overcast,200,2013-11-02 02:53:00
11:53 PM,55.9,42.1,60,29.72,10.0,South,4.6,-,N/A,,Overcast,190,2013-11-02 03:53:00